BREEZE-M DEB, 32036

Orbit data source: Space-Track

BREEZE-M DEB, 32036 is space debris in HEO originally from a launch on Tue, 28 Feb 2006 UTC launched from the Tyuratam Missile And Space Complex (TTMTR). Debris objects in space refer to the collection of defunct objects orbiting the Earth. Examples of debris include non-operational satellites, rocket bodies, and fragments generated from explosions, collisions, or faulty payload assembly.

Loading next visibility...
Identifier
32036, 2006-006P
Orbit
HEO
Country
Flag of CISCIS
Related business
Manufacturer
Khrunichev
Mission
Spacecraft
Bus & Motor
Unknown
Mass
Unknown
Launch date (UTC)
2006-02-28 (20 years ago)
Launch vehicle
Unknown
Launch site
Tyuratam Missile And Space Complex (TTMTR)
Object type
Payload
Rocket body
Debris
Shape & HBR
Unknown shape, 0.1 m
Radar Cross Section
Medium (>0.1 m² and <1 m²)

Expand to show TLE details & history
Last TLE update: 22 hours ago

TLE from 22 hours ago
0 BREEZE-M DEB
1 32036U 06006P   26162.33572639  .00000958  00000-0  11249-2 0  9992
2 32036  51.6535 127.2243 5077498  50.0609 344.6010  5.29445436370204
Epoch: 2026-06-11T08:03Z
TLE epoch observation values (Epoch: 2026-06-11T08:03:26.760Z)
Latitude
-0.00017°
Longitude
106.66582°
Altitude
1,404.251 km
Speed
8.59 km/s
True Right ascension
08h 28m 49s
True Declination
0° 00' 01"
Sunlit
Object was in daylight at epoch
Visualization orbit readout
Latitude
Unknown
Longitude
Unknown
Altitude
Unknown
Speed
Unknown
Apparent Right ascension
Unknown
Apparent Declination
Unknown
Sunlit
N/A
Visualization observer readout
Local Sidereal Time
16:50:19
Azimuth
Unknown
Elevation
Unknown
Doppler factor
Unknown
Orbital elements
Apogee altitude
14,588.521 km
Perigee altitude
467.058 km
Semi-major axis
13,905.927 km
Eccentricity
0.50775
Inclination
51.6535°
RAAN
127.2243°
Arg. of periapsis
50.0609°
True anomaly
309.90296°
Mean anomaly
344.601°
Eccentric anomaly
330.09827°
Mean motion
1.32356 °/min
Orbital period
271.99 mins
BSTAR
0.0011249
Loading maneuver chart data...
Computing Atmospheric mass density...
Loading historical data...
Loading historical data...
Loading historical data...
Loading historical data...
Loading historical data...
Loading historical data...
Loading historical data...

Documentation

Showing up to 5 results
|